This demonstration page uses our WeatherBlox Daily Observations layout. Learn more.

Left ArrowRight Arrow

39.51506, -84.39828

Hourly Observations for March 23, 2016

Temp ( °F °C ) Dew Point ( °F °C ) Humidity (%) Winds ( mph kmh ) Pressure ( in mb ) Visibility ( mi km ) Precip ( " mm )
12:15 am 00:15 Clear 60 15.3 23 -4.9 25 25 SSW 14 22 29.85 1011 10 16 0.00 0.00
12:35 am 00:35 Clear 60 15.3 25 -4.1 26 26 SW 10 17 29.85 1011 10 16 0.00 0.00
12:55 am 00:55 Clear 60 15.3 26 -3.2 28 28 SSW 9 15 29.85 1011 10 16 0.00 0.00
1:15 am 01:15 Clear 58 14.7 26 -3.3 29 29 SSW 10 17 29.85 1011 10 16 0.00 0.00
1:35 am 01:35 Clear 57 13.8 26 -3.2 31 31 SSW 9 15 29.88 1012 10 16 0.00 0.00
1:55 am 01:55 Clear 57 13.8 27 -2.7 32 32 SSW 9 15 29.91 1013 10 16 0.00 0.00
2:15 am 02:15 Clear 57 13.8 28 -2 34 34 SSW 9 15 29.91 1013 10 16 0.00 0.00
2:35 am 02:35 Clear 57 13.8 28 -2.1 33 33 SSW 9 15 29.91 1013 10 16 0.00 0.00
2:55 am 02:55 Clear 57 13.8 27 -2.6 32 32 SSW 10 17 29.91 1013 10 16 0.00 0.00
3:15 am 03:15 Clear 57 13.8 26 -3.1 31 31 SSW 10 17 29.91 1013 10 16 0.00 0.00
3:35 am 03:35 Clear 57 13.8 28 -2 34 34 SSW 8 13 29.91 1013 10 16 0.00 0.00
3:55 am 03:55 Clear 57 13.8 28 -2 34 34 SSW 8 13 29.91 1013 10 16 0.00 0.00
4:15 am 04:15 Clear 56 13.4 28 -2 35 35 SSW 9 15 29.91 1013 10 16 0.00 0.00
4:35 am 04:35 Clear 56 13.4 28 -2.1 34 34 SSW 9 15 29.91 1013 10 16 0.00 0.00
4:55 am 04:55 Clear 55 12.5 27 -2.6 35 35 SSW 8 13 29.91 1013 10 16 0.00 0.00
5:15 am 05:15 Clear 55 12.5 28 -2.5 35 35 SSW 8 13 29.91 1013 10 16 0.00 0.00
5:35 am 05:35 Clear 55 12.5 28 -2.1 36 36 SSW 7 11 29.91 1013 10 16 0.00 0.00
5:55 am 05:55 Clear 55 12.5 29 -1.7 38 38 SSW 8 13 29.91 1013 10 16 0.00 0.00
6:15 am 06:15 Clear 55 12.5 29 -1.6 38 38 SSW 6 9 29.91 1013 10 16 0.00 0.00
6:35 am 06:35 Clear 55 12.5 29 -1.7 38 38 S 8 13 29.91 1013 10 16 0.00 0.00
6:55 am 06:55 Clear 55 12.5 29 -1.5 38 38 SSW 9 15 29.91 1013 10 16 0.00 0.00
7:15 am 07:15 Clear 55 12.5 30 -1 40 40 SSW 9 15 29.94 1014 10 16 0.00 0.00
7:35 am 07:35 Sunny 55 12.5 31 -0.6 41 41 SSW 9 15 29.94 1014 10 16 0.00 0.00
7:55 am 07:55 Sunny 55 12.5 32 0 43 43 SSW 9 15 29.94 1014 10 16 0.00 0.00
8:15 am 08:15 Sunny 55 12.5 32 -0.1 42 42 SSW 9 15 29.94 1014 10 16 0.00 0.00
8:35 am 08:35 Sunny 56 13.6 33 0.3 40 40 SSW 10 17 29.94 1014 10 16 0.00 0.00
8:55 am 08:55 Sunny 57 13.8 32 0 39 39 SSW 12 19 29.94 1014 10 16 0.00 0.00
9:15 am 09:15 Sunny 60 15.3 33 0.3 36 36 SSW 15 24 29.91 1013 10 16 0.00 0.00
9:35 am 09:35 Sunny 60 15.3 33 0.7 37 37 SSW 16 26 29.91 1013 10 16 0.00 0.00
9:55 am 09:55 Sunny 60 15.3 33 0.7 37 37 SW 15 24 29.91 1013 10 16 0.00 0.00
10:15 am 10:15 Sunny 60 15.4 34 0.9 38 38 SW 18 30 29.94 1014 10 16 0.00 0.00
10:35 am 10:35 Sunny 61 16.2 35 1.7 38 38 SW 18 30 29.94 1014 10 16 0.00 0.00
10:55 am 10:55 Sunny 62 16.4 36 2.2 39 39 SSW 23 37 29.94 1014 10 16 0.00 0.00
11:15 am 11:15 Partly Cloudy 61 16 37 2.8 41 41 SW 20 31 29.94 1014 10 16 0.00 0.00
11:35 am 11:35 Cloudy 61 16 38 3.4 43 43 SW 17 28 29.97 1015 10 16 0.00 0.00
11:55 am 11:55 Cloudy 61 16 39 4 45 45 SW 15 24 29.97 1015 10 16 0.00 0.00
12:15 pm 12:15 Cloudy 61 16 40 4.2 46 46 SSW 16 26 29.94 1014 10 16 0.00 0.00
12:35 pm 12:35 Cloudy 61 16 40 4.5 47 47 SW 22 35 29.94 1014 10 16 0.00 0.00
12:55 pm 12:55 Cloudy 61 16 40 4.5 47 47 SSW 21 33 29.94 1014 10 16 0.00 0.00
1:15 pm 13:15 Cloudy 61 16 41 5 48 48 SSW 16 26 29.94 1014 10 16 0.00 0.00
1:35 pm 13:35 Cloudy 60 15.6 41 5.1 50 50 SW 16 26 29.97 1015 10 16 0.00 0.00
1:55 pm 13:55 Cloudy 60 15.6 42 5.5 51 51 SW 13 20 29.97 1015 10 16 0.00 0.00
2:15 pm 14:15 Cloudy 61 16 42 5.6 50 50 SW 14 22 29.94 1014 10 16 0.00 0.00
2:35 pm 14:35 Cloudy 62 16.5 43 6 50 50 SW 21 33 29.94 1014 10 16 0.00 0.00
2:55 pm 14:55 Cloudy 62 16.6 43 6.1 50 50 SSW 15 24 29.94 1014 10 16 0.00 0.00
3:15 pm 15:15 Cloudy 62 16.6 43 6.2 50 50 SSW 15 24 29.94 1014 10 16 0.00 0.00
3:35 pm 15:35 Cloudy 62 16.5 44 6.4 51 51 SSW 15 24 29.91 1013 10 16 0.00 0.00
3:55 pm 15:55 Cloudy 62 16.6 44 6.5 52 52 SSW 15 24 29.91 1013 10 16 0.00 0.00
4:15 pm 16:15 Cloudy 62 16.6 43 6.3 51 51 SSW 16 26 29.91 1013 10 16 0.00 0.00
4:35 pm 16:35 Cloudy 62 16.7 43 6.2 50 50 SSW 16 26 29.91 1013 10 16 0.00 0.00
4:55 pm 16:55 Cloudy 62 16.6 43 6 50 50 SSW 15 24 29.88 1012 10 16 0.00 0.00
5:15 pm 17:15 Cloudy 62 16.6 44 6.4 51 51 SW 12 19 29.88 1012 10 16 0.00 0.00
5:35 pm 17:35 Cloudy 62 16.6 44 6.5 52 52 SSW 15 24 29.88 1012 10 16 0.00 0.00
5:55 pm 17:55 Cloudy 62 16.6 44 6.6 52 52 SSW 17 28 29.88 1012 10 16 0.00 0.00
6:15 pm 18:15 Cloudy 61 16.3 44 6.7 53 53 SSW 17 28 29.91 1013 10 16 0.00 0.00
6:35 pm 18:35 Cloudy 62 16.6 45 7 53 53 SSW 17 28 29.88 1012 10 16 0.00 0.00
6:55 pm 18:55 Cloudy 62 16.6 45 7.1 54 54 SSW 15 24 29.88 1012 10 16 0.00 0.00
7:15 pm 19:15 Cloudy 61 16.1 44 6.9 55 55 SSW 14 22 29.88 1012 10 16 0.00 0.00
7:35 pm 19:35 Cloudy 61 16 45 7 55 55 SSW 12 19 29.88 1012 10 16 0.00 0.00
7:55 pm 19:55 Mostly Cloudy 61 16 45 7 55 55 SSW 13 20 29.88 1012 10 16 0.00 0.00
8:15 pm 20:15 Mostly Cloudy 61 16 45 7 55 55 SSW 8 13 29.88 1012 10 16 0.00 0.00
8:35 pm 20:35 Partly Cloudy 60 15.4 45 7.1 58 58 SSW 7 11 29.88 1012 10 16 0.00 0.00
8:55 pm 20:55 Partly Cloudy 57 13.9 44 6.8 63 63 SW 3 6 29.91 1013 10 16 0.00 0.00
9:15 pm 21:15 Clear 56 13.3 45 7.1 66 66 SSW 5 7 29.94 1014 10 16 0.00 0.00
9:35 pm 21:35 Clear 56 13.5 46 7.8 69 69 Calm 29.94 1014 10 16 0.00 0.00
9:55 pm 21:55 Clear 55 12.5 46 7.5 72 72 Calm 29.94 1014 10 16 0.00 0.00
10:15 pm 22:15 Partly Cloudy 51 10.7 45 7.2 79 79 Calm 29.94 1014 10 16 0.00 0.00
10:35 pm 22:35 Mostly Cloudy 51 10.3 45 7.2 81 81 NNW 3 6 29.94 1014 10 16 0.00 0.00
10:55 pm 22:55 Cloudy 51 10.7 46 8 84 84 Calm 29.94 1014 10 16 0.00 0.00
11:15 pm 23:15 Cloudy 54 12.1 48 8.7 80 80 Calm 29.91 1013 10 16 0.00 0.00
11:35 pm 23:35 Cloudy 55 12.5 49 9.4 82 82 Calm 29.91 1013 10 16 0.00 0.00
11:55 pm 23:55 Cloudy 55 12.5 49 9.3 81 81 Calm 29.91 1013 10 16 0.00 0.00

Powered by AerisWeather